Regional Weather Roundup
Issued by NWS Wilmington, NC

Home | Current Version | Previous Version | Text Only | Print | Product List | Glossary On
Versions: 1 2 3 4 5 6 7 8 9 10 11 12 13 14 15 16 17 18 19 20 21 22 23 24 25 26 27 28 29 30 31 32 33 34 35 36 37 38 39 40 41 42 43 44 45 46 47 48 49 50
000
ASUS42 KILM 201412
RWRILM
RWRILM
REGIONAL HOURLY WEATHER ROUNDUP
NATIONAL WEATHER SERVICE WILMINGTON NC
900 AM EST MON FEB 20 2017

NOTE: "FAIR" INDICATES FEW OR NO CLOUDS BELOW 12,000 FEET WITH NO
SIGNIFICANT WEATHER AND/OR OBSTRUCTIONS TO VISIBILITY.

...............WFO WILMINGTON COUNTY WARNING AREA...............

......COASTAL NC AND SC COUNTIES......

CITY           SKY/WX    TMP DP  RH WIND       PRES   REMARKS
WILMINGTON     SUNNY     58  45  62 NE8       30.20R
N MYRTLE BEACH SUNNY     58  46  64 NE12      30.19R
MYRTLE BEACH   SUNNY     57  45  62 N8        30.21R

......INLAND NC AND SC COUNTIES.......

CITY           SKY/WX    TMP DP  RH WIND       PRES   REMARKS
LUMBERTON      SUNNY     56  45  66 NE8       30.20R
ELIZABETHTOWN  SUNNY     55  45  68 NE6       30.21R
WHITEVILLE     SUNNY     57  44  61 NE6       30.20R
FLORENCE       MOSUNNY   56  45  66 NE9       30.21R
DARLINGTON     MOSUNNY   54  45  71 N9        30.22R
KINGSTREE      FAIR      55  43  62 N5        30.19S
HARTSVILLE     FAIR      57  43  58 N7        30.20S
BENNETTSVILLE  NOT AVBL
CONWAY         FAIR      55  46  71 NE8       30.20S HAZE
GEORGETOWN     FAIR      55  45  67 NE6       30.20R
MARION         FAIR      52  45  76 NE6       30.21R

....................REST OF NORTH CAROLINA......................

.........EASTERN NC.........

CITY           SKY/WX    TMP DP  RH WIND       PRES   REMARKS
CAPE HATTERAS  SUNNY     58  45  62 N10       30.17R HAZE
JACKSONVILLE   SUNNY     58  45  62 N8        30.21
MOREHEAD CITY  SUNNY     61  48  62 NE7       30.16S
KENANSVILLE    NOT AVBL
NEW BERN       SUNNY     57  47  69 NE8       30.19R
ELIZABETH CITY SUNNY     56  45  66 N14       30.18S

.........CENTRAL NC.........

CITY           SKY/WX    TMP DP  RH WIND       PRES   REMARKS
RALEIGH DURHAM MOSUNNY   56  42  59 N5        30.23R
ROCKY MOUNT    SUNNY     56  44  64 N7        30.23R
ROANOKE RAPIDS NOT AVBL
FAYETTEVILLE   SUNNY     58  44  60 NE7       30.21R
HOFFMAN        SUNNY     52  45  77 N5        30.21R

.........WESTERN NC.........

CITY           SKY/WX    TMP DP  RH WIND       PRES   REMARKS
CHARLOTTE      MOSUNNY   55  44  66 N6        30.25R
GREENSBORO     PTSUNNY   54  43  66 NE5       30.23R
HICKORY        NOT AVBL
BOONE          NOT AVBL
ASHEVILLE      NOT AVBL

.....................REST OF SOUTH CAROLINA.....................

.........EASTERN SC.........

CITY           SKY/WX    TMP DP  RH WIND       PRES   REMARKS
CHARLESTON     MOSUNNY   59  46  62 NE9       30.18R
BEAUFORT MCAS  SUNNY     61  51  70 NE8       30.19R
HILTON HEAD    MOSUNNY   64  54  68 NE7       30.19R

.........CENTRAL SC.........

CITY           SKY/WX    TMP DP  RH WIND       PRES   REMARKS
COLUMBIA       MOSUNNY   52  47  83 CALM      30.22R
ORANGEBURG     SUNNY     60  45  57 NE7       30.21R
SUMTER SHAW    SUNNY     58  47  67 NE9       30.19R

.........WESTERN SC.........

CITY           SKY/WX    TMP DP  RH WIND       PRES   REMARKS
GREENVILLE     NOT AVBL
ROCK HILL      SUNNY     51  44  77 NE5       30.24R
ANDERSON       SUNNY     56  44  64 CALM      30.22R
CLEMSON        NOT AVBL
GREENWOOD      SUNNY     51  44  77 NE3       30.24R


...................COASTAL AND OFFSHORE REPORTS..................

................LOCAL PIERS AND NC RESERVE................


STATION/POSITION TIME  SKY/WX   TEMP    WIND        PRES    VSBY
                                AIR SEA DIR/SP/G
                 (UTC)          (F)     (DEG/KT/KT) (MB)    (MI)
JOHNY MRCER PIER 1348            58 57   20/ 11/ 13 1021.2R
NC RESRV MASNBRO 1245            54      30/  2     1020.0
OCEAN CREST PIER NOT AVBL
SPRINGMAID  PIER 1348                               1021.6R


................COASTAL AND OFFSHORE BUOYS................


STATION/POSITION TIME  SKY/WX   TEMP    WIND        PRES    VSBY
                                AIR SEA DIR/SP/G
                 (UTC)          (F)     (DEG/KT/KT) (MB)    (MI)
DIMNDSHOAL 41025 1350            60 64   10/ 17/ 21 1021.1R
WVE H/P(F/S)=  3/ 4 SWL H/P/D(F/S/D)=  2/ 80/ 6

CAPE LOOKOUT     1400            58      30/ 15/ 18 1021.0R
ONSLOW BAY 41036 NOT AVBL
ONSLOW BAY 41064 1308            59      40/ 16/ 19 1021.0R
ONSLOW BAY 41159 1343               63                N/A
WVE H/P(F/S)=  3/ 3

MASNBO INL 41110 1329               56                N/A
WVE H/P(F/S)=  2/ 3

WILM HARBR 41108 1347               56                N/A
WVE H/P(F/S)=  1/ 2

27SE WRITB 41037 1308            59 61   50/ 14/ 19 1020.3R
FRYING PAN 41013 1400            60 65   20/ 14/ 16 1021.8
SUNST NRSH 41024 1308            55 55   20/ 10/ 14 1021.6R
CAPRS NRSH 41029 1308            58 59   10/ 10/ 12 1021.7R
EDISTO     41004 1350            64 69   20/ 12/ 14 1021.4R
WVE H/P(F/S)=  2/ 3



..........OFFSHORE BUOYS BEYOND 100 NM OFFSHORE...........
.....IN A TRIANGLE---HAT TO BERMUDA TO BAHAMAS TO HAT.....


STATION/POSITION TIME  SKY/WX   TEMP    WIND        PRES    VSBY
                                AIR SEA DIR/SP/G
                 (UTC)          (F)     (DEG/KT/KT) (MB)    (MI)
150E HAT   41001 NOT AVBL
W BERMUDA  41048 1350            67 69   20/ 14/ 16 1014.7R
WVE H/P(F/S)=  6/ 8 SWL H/P/D(F/S/D)=  5/210/ 8

ATLANTIC S 41049 1350            69 72  100/ 14/ 16 1016.9R
WVE H/P(F/S)=  4/ 8 SWL H/P/D(F/S/D)=  3/350/ 8

E BAHAMAS  41046 1400            76 77  290/ 12/ 14 1016.4
NE BAHAMAS 41047 1400            71 74  330/ 21/ 25 1015.5
120E CANVRL41010 NOT AVBL

END



USA.gov is the U.S. government's official web portal to all federal, state and local government web resources and services.